Hope Airport
CYHE : now visible

Airfield :











YOU CAN JOIN US ON...

 
LOGIN :

Register | Disclaimer

   EN    FR    IT 

 









Legend :    VFR   Marginal VFR   IFR   Intensive IFR   Very Intensive IFR
Visi :
Ceiling :
>= 8 km
>= 3000ft
5 to 8 km
1000 to 3000 ft
1500m to 5 km
500 to 1000 ft
800 to 1500m
200 to 500 ft
< 800m
< 200 ft
Symbols :   Thunderstorms  Fog  Heavy snow  Heavy precipitations  Wind > 20 kt






- Airport Elevation : 128 ft
- IATA code : YHE


CYHE - Hope

CURRENT METAR :
  • 031300Z AUTO 10008KT 9SM SCT240 17/15 A3008 RMK SLP187 DENSITY ALT 200FT

EXPIRED METARs :
  • 031200Z AUTO 09006KT 9SM SCT240 17/15 A3007 RMK SLP185 DENSITY ALT 300FT
  • 031100Z AUTO 10008KT 9SM SCT250 19/15 A3008 RMK SLP186 DENSITY ALT 400FT

TAF N/A
CZVR FIR / North America



MET'MAP, your aeronautical weather chart ! - Copyright ORBIFLY December 2007 - Disclaimer

ORBIFLY MET'MAP TEAM :

Programming & Development : Alexandra Zaïnal
Concept & original design : Baudouin d'Aumeries
Assistance for programming : Marc-Olivier Méhu
Technical & hardware support : Manuel Goepfert

Contact : metmap@orbifly.com




SOURCES & CREDITS :

   NOAA       Earth
Advisory